User: anonymous   Login
Location: Unspecified
(0.0000°N, 0.0000°E)
Time: 08:51:26
(UTC+00:00)
Language:

GALILEO 11 (268) - Orbit

View from above orbital plane
View from above orbital plane
View from above satellite
View from above satellite

Ground track
Ground track

The orbit data is extracted from the following two-line orbital elements,

1 41175U 15079B   17176.25462556 +.00000061 +00000-0 +00000-0 0  9994
2 41175 054.9200 191.4961 0005816 279.0914 080.8793 01.70473756009467
Epoch (UTC): 25 June 2017 06:06:39
Eccentricity: 0.0005816
inclination: 54.9200°
perigee height: 23205 km
apogee height: 23239 km
right ascension of ascending node: 191.4961°
argument of perigee: 279.0914°
revolutions per day: 1.70473756
mean anomaly at epoch: 80.8793°
orbit number at epoch: 946

The dashed part of the orbit path shows where the satellite is in the earth's shadow,  

DLR